Weather Roundup
Issued by NWS

Home | Current Version | Previous Version | Text Only | Print | Product List | Glossary On
Versions: 1 2 3 4 5 6 7 8 9 10 11 12 13 14 15 16 17 18 19 20 21 22 23 24 25 26 27 28 29 30 31 32 33 34 35 36 37 38 39 40 41 42 43 44 45 46 47 48 49 50
000
NZUS93 KARX 270259
HRRWXR

CURRENT HOURLY OBSERVATIONS ACROSS
MUCH OF THE UPPER MISSISSIPPI VALLEY
NATIONAL WEATHER SERVICE LA CROSSE WI
1000 PM CDT THU APR 26 2018


...SOUTHEAST MINNESOTA...


CITY           SKY/WX    TMP DP  RH WIND       PRES   REMARKS
ROCHESTER      FAIR      47  34  60 W10       29.91R
ROCHESTER/MAYO FAIR      53  31  43 NW7       29.91R
WINONA         FAIR      54  32  43 NW13G18   29.86R
AUSTIN         FAIR      48  34  57 NW13      29.93R
ALBERT LEA     FAIR      50  28  43 NW9G17    29.95R
DODGE CENTER   FAIR      48  34  57 NW9       29.92R
PRESTON        FAIR      51  30  45 N8        29.90R
OWATONNA       FAIR      48  36  61 NW13      29.94R
FARIBAULT      NOT AVBL
$$

...ELSEWHERE IN MINNESOTA...


CITY           SKY/WX    TMP DP  RH WIND       PRES   REMARKS
MINNEAPOLIS    FAIR      52  25  35 N8        29.93R
INTNL FALLS    FAIR      39  24  55 SE3       29.87F
DULUTH         FAIR      45  20  36 N3        29.90R
RED WING       FAIR      54  19  26 N6        29.90R
REDWOOD FALLS  CLEAR     47  31  53 NW6       30.00R
MANKATO        FAIR      49  31  49 NW15      29.97R
WORTHINGTON    CLEAR     43  36  76 NW5       30.04R
FAIRMONT       CLEAR     47  32  56 NW14      30.00R
$$

...SOUTHWEST WISCONSIN...


CITY           SKY/WX    TMP DP  RH WIND       PRES   REMARKS
LA CROSSE      FAIR      56  34  43 NW10      29.84R
PRAIRIE DU CHI FAIR      58  35  41 NW9       29.83R
BOSCOBEL       FAIR      60  41  49 W3        29.82R
LONE ROCK      NOT AVBL
PLATTEVILLE    FAIR      57  43  59 W8        29.82R
FORT MC COY    FAIR      57  37  47 N15G23    29.85R
CAMP DOUGLAS   MOCLDY    53  36  53 N16       29.85R
MAUSTON-NEW LI CLOUDY    57  37  47 N15G25    29.82R
VIROQUA        FAIR      56  38  50 NW13      29.83R
WIS DELLS      CLOUDY    59  32  35 W5        29.78S
$$

...ELSEWHERE IN WISCONSIN...


CITY           SKY/WX    TMP DP  RH WIND       PRES   REMARKS
MILWAUKEE      CLOUDY    52  28  39 S5        29.79F
MADISON        MOCLDY    55  34  45 CALM      29.77S
GREEN BAY      CLOUDY    47  35  63 NE25G36   29.82R
EAU CLAIRE     FAIR      48  35  60 NE6       29.88R
BLACK RVR FLS  FAIR      54  33  44 NE8       29.85R
MEDFORD        FAIR      39  32  76 N6        29.87S
WAUSAU         FAIR      44  33  65 N12G21    29.86R
WIS RAPIDS     MOCLDY    49  32  52 N16       29.86R
MARSHFIELD     FAIR      45  34  65 N12G18    29.86R
RICE LAKE      FAIR      42  32  68 CALM      29.91S
$$

...NORTHEAST IOWA...


CITY           SKY/WX    TMP DP  RH WIND       PRES   REMARKS
WATERLOO       FAIR      52  35  52 NW17G24   29.91R
DUBUQUE        FAIR      56  40  55 NW12      29.83R
DECORAH        FAIR      54  32  43 NW8G15    29.87R
MASON CITY     CLEAR     48  35  60 NW16      29.96R
CHARLES CITY   FAIR      52  32  46 NW17G23   29.92R
OELWEIN        FAIR      54  37  54 NW16      29.89R
$$

...ELSEWHERE IN IOWA...


CITY           SKY/WX    TMP DP  RH WIND       PRES   REMARKS
DES MOINES     CLEAR     55  32  41 NW10      29.98R
IOWA CITY      FAIR      60  40  47 NW12      29.88R
FORT DODGE     CLEAR     50  32  50 NW9G17    30.01R
MARSHALLTOWN   CLEAR     51  36  56 NW21      29.94R
CEDAR RAPIDS   FAIR      55  41  59 NW14      29.87R
$$

...NORTHERN ILLINOIS...


CITY           SKY/WX    TMP DP  RH WIND       PRES   REMARKS
CHICAGO-OHARE  MOCLDY    55  29  36 S6        29.82S
CHICAGO-MIDWAY FAIR      58  29  33 SE7       29.83F
MOLINE         FAIR      57  30  35 SW6       29.81S
ROCKFORD       FAIR      55  30  38 S5        29.81S
PEORIA         FAIR      58  34  40 CALM      29.85F
$$

NOTE: "FAIR" INDICATES FEW OR NO CLOUDS BELOW 12,000 FEET WITH NO
SIGNIFICANT WEATHER AND/OR OBSTRUCTIONS TO VISIBILITY. WIND
SPEEDS ARE IN MILES-PER-HOUR.




USA.gov is the U.S. government's official web portal to all federal, state and local government web resources and services.